Regional Weather Roundup
Issued by NWS

Home | Current Version | Previous Version | Text Only | Print | Product List | Glossary On
Versions: 1 2 3 4 5 6 7 8 9 10 11 12 13 14 15 16 17 18 19 20 21 22 23 24 25 26 27 28 29 30 31 32 33 34 35 36 37 38 39 40 41 42 43 44 45 46 47 48 49 50
000
ASUS44 KJAN 271110
RWRMS

MISSISSIPPI HOURLY WEATHER ROUNDUP
NATIONAL WEATHER SERVICE JACKSON MS
600 AM CDT MON JUN 27 2016

NOTE: "FAIR: INDICATES FEW OR NO CLOUDS BELOW 12,000 FEET WITH NO
SIGNIFICANT WEATHER AND/OR OBSTRUCTIONS TO VISIBILITY.

MSZ001>002-007>008-010>013-018>021-025>028-034>036-271200-
NORTHWEST MISSISSIPPI

CITY           SKY/WX    TMP DP  RH WIND       PRES   REMARKS
CLEVELAND      FAIR      76  76 100 NW3       30.05F
GREENWOOD      CLEAR     74  71  91 CALM      30.05F
GREENVILLE     MOCLDY    77  70  79 NW3       30.06F
OXFORD         FAIR      73  72  94 CALM      30.07F
WINONA         FAIR      72  72 100 CALM      30.07S
$$

MSZ003>006-009-014>017-022>024-029>033-037>039-271200-
NORTHEAST MISSISSIPPI

CITY           SKY/WX    TMP DP  RH WIND       PRES   REMARKS
ABERDEEN       FAIR      73  55  53 CALM      30.07F HAZE
COLUMBUS AFB   PTCLDY    74  74 100 SE5       30.05F
GOLDN TRIANGLE PTCLDY    75  70  83 CALM      30.06S
STARKVILLE     FAIR      72  72 100 CALM      30.06S
TUPELO         CLEAR     77  73  87 SE3       30.06F
$$

MSZ040-058-271200-
CENTRAL MISSISSIPPI

CITY           SKY/WX    TMP DP  RH WIND       PRES   REMARKS
JACKSON INTL   PTCLDY    76  71  85 CALM      30.08R
JACKSON HAWKNS CLEAR     77  73  87 CALM      30.08R
MADISON        FAIR      73  72  94 CALM      30.07S
MERIDIAN KEY   MOCLDY    76  71  85 CALM      30.07S
MERIDIAN NAS   CLEAR     74  69  85 CALM      30.08R
VICKSBURG VKS  SUNNY     77  75  94 MISG      30.07S
$$

MSZ059>079-271200-
SOUTH MISSISSIPPI

CITY           SKY/WX    TMP DP  RH WIND       PRES   REMARKS
BROOKHAVEN     FAIR     N/A N/A N/A CALM      30.09S
COLUMBIA       CLOUDY    77  73  88 CALM      30.10R
HATTIESBURG    MOCLDY    77  73  87 CALM      30.07R
MCCOMB         CLOUDY    77  71  82 NW5       30.07S
NATCHEZ        NOT AVBL
PINE BELT      CLEAR     73  68  83 CALM      30.08R
$$

MSZ080>082-271200-
COASTAL MISSISSIPPI

CITY           SKY/WX    TMP DP  RH WIND       PRES   REMARKS
BILOXI         CLOUDY    75  75  98 VRB5      30.07R
PASCAGOULA     MOCLDY    76  74  93 CALM      30.06R
GULFPORT       CLOUDY    74  71  91 N10       30.09R THUNDER
$$

LAZ007>009-015>016-023>026-271200-
NORTHEAST LOUISIANA

CITY           SKY/WX    TMP DP  RH WIND       PRES   REMARKS
BASTROP        FAIR      75  74  98 CALM      30.07F FOG
TALLULAH/VBURG CLEAR     75  73  93 CALM      30.06S FOG
VIDALIA        FAIR      76  74  95 CALM      30.09S
$$




USA.gov is the U.S. government's official web portal to all federal, state and local government web resources and services.